[[{"header":{"parameterUnit":"m.s-1","parameterCategory":1,"la1":30.2991,"la2":30.254,"lo1":-89.0895,"lo2":-89.0444,"dy":0.0017,"dx":0.0017,"nx":28,"ny":28,"refTime":"2024-07-11T09:00:00:Z","depth":0,"parameterNumber":2,"parameterNumberName":"U-component_of_WINDS"},"data":[0,0,0,0,0,0,0,0,0,0,0,0,0,0,0,0,0,0,0,0,0,0,0,0,0,0,0,0,0,0,0,0,0,0,0,0,0,0,0,0,0,0,0,0,0,0,0,0,0,0,0,0,0,0,0,0,0,0,2.3463,2.3465,0,2.3606,2.3607,2.3609,2.364,2.3638,2.3637,2.3636,2.3782,2.3787,2.3791,0,0,0,0,0,0,0,0,0,0,0,0,0,2.3215,2.3219,2.3463,2.3465,2.3466,2.3606,2.3608,2.361,2.364,2.3638,2.3637,2.3636,2.378,2.3786,2.3792,0,0,0,0,0,0,0,0,0,0,0,0,0,2.3337,2.3221,2.3463,2.3498,2.3503,2.3605,2.3608,2.361,2.364,2.3638,2.3637,2.3635,2.3778,2.3785,2.3793,2.3869,0,0,2.3815,2.3818,0,0,0,0,0,0,0,0,2.333,2.3346,2.3491,2.3496,2.3501,2.3603,2.3574,2.3697,2.364,2.3588,2.3636,2.3635,2.3724,2.3735,2.3766,2.3876,2.3882,2.3815,2.382,2.3823,2.3825,0,0,0,0,0,0,0,2.3321,2.334,2.3519,2.3493,2.35,2.3507,2.3522,2.3597,2.3663,2.3592,2.3595,2.3611,2.3726,2.3758,2.3769,2.3884,2.3815,2.3822,2.3826,2.3829,2.4064,2.4066,0,0,0,0,0,0,2.3307,2.3333,2.3515,2.3524,2.341,2.3513,2.353,2.3572,2.3662,2.3674,2.3613,2.3612,2.3747,2.3761,2.3774,2.3869,2.3823,2.383,2.3834,2.4062,2.4064,2.4066,0,0,0,0,0,0,2.3301,2.3323,2.3509,2.3429,2.3453,2.3519,2.3566,2.3576,2.3608,2.3677,2.3689,2.3634,2.3746,2.3764,2.3845,2.3875,2.3833,2.384,2.406,2.4063,2.4065,2.406,0,0,0,0,0,0,2.3294,2.3321,2.3351,2.3429,2.3457,2.3578,2.3568,2.358,2.3621,2.3622,2.37,2.3712,2.3746,2.3834,2.3852,2.3884,2.3845,2.4057,2.4061,2.4064,2.4057,2.4062,2.4066,0,0,0,0,0,2.3285,2.3343,2.3352,2.3374,2.3496,2.3579,2.3595,2.3634,2.3623,2.3653,2.3698,2.3709,2.3869,2.3842,2.3863,2.3897,2.4056,2.406,2.4064,2.4055,2.4061,2.4065,0,0,0,0,0,0,2.3266,2.3354,2.3365,2.345,2.3507,2.3584,2.3624,2.3639,2.37,2.3698,2.3743,2.3761,2.3839,2.3876,2.3845,2.3976,2.3962,2.397,2.3948,2.3954,2.3958,2.3947,2.3851,0,0,0,0,0,2.3271,2.3332,2.3406,2.3474,2.3502,2.3558,2.3596,2.3621,2.3681,2.3705,2.3756,2.3814,2.3877,2.3918,2.398,2.4063,2.408,2.4097,2.4101,2.4104,2.4111,2.4157,2.4165,2.408,2.408,2.408,0,0,2.3283,2.3339,2.3375,2.3471,2.3518,2.358,2.3578,2.3643,2.3688,2.3715,2.3794,2.3834,2.3902,2.3984,2.4023,2.4018,2.4138,2.411,2.4111,2.4117,2.4162,2.417,2.4177,2.4083,2.4082,2.4082,0,0,2.3337,2.3385,2.3447,2.3495,2.3566,2.3603,2.3618,2.3693,2.372,2.3801,2.3822,2.3877,2.3985,2.4032,2.407,2.4141,2.4154,2.4161,2.4182,2.4226,2.4233,2.4239,2.4264,2.4272,2.4167,2.4167,2.4167,0,2.3342,2.3436,2.3477,2.3541,2.3583,2.361,2.3673,2.3716,2.3804,2.3832,2.3825,2.3961,2.4009,2.4102,2.412,2.415,2.4168,2.4151,2.4229,2.4235,2.4242,2.4265,2.4275,2.4167,2.4167,2.4167,2.4167,0,2.3439,2.3504,2.3545,2.3629,2.3676,2.3739,2.3789,2.3831,2.3852,2.3889,2.3971,2.4029,2.4103,2.4127,2.4148,2.4224,2.4218,2.422,2.4206,2.4249,2.4272,2.4282,2.4168,2.4168,2.4167,2.4167,0,0,2.3483,2.359,2.3604,2.3642,2.3723,2.3774,2.3838,2.3911,2.3945,2.4005,2.4059,2.415,2.4152,2.4195,2.4222,2.4261,2.4313,2.4258,2.426,2.4265,2.4399,2.4397,2.4407,2.4322,2.4324,2.4326,2.4393,0,2.3545,2.3661,2.37,2.3795,2.3855,2.3882,2.3938,2.3993,2.403,2.4086,2.4126,2.419,2.4188,2.4214,2.4254,2.4298,2.434,2.4294,2.4373,2.4375,2.4354,2.4419,2.4417,2.4477,2.4402,2.4404,2.4405,0,2.3633,2.3694,2.3796,2.3869,2.3895,2.3945,2.4014,2.4068,2.4131,2.4155,2.4203,2.4227,2.4295,2.4278,2.4372,2.4339,2.4374,2.4401,2.4404,2.4412,2.4392,2.4427,2.4497,2.4506,2.442,2.4419,2.4418,0,2.3654,2.3762,2.3836,2.3868,2.3956,2.399,2.4028,2.409,2.4131,2.4192,2.4219,2.4287,2.4323,2.4375,2.4417,2.4401,2.4506,2.4493,2.4527,2.4526,2.4547,2.4545,2.4622,2.4571,2.4571,2.4571,2.4571,0,2.3718,2.3779,2.3846,2.3892,2.3961,2.4005,2.4072,2.4111,2.4166,2.422,2.4248,2.4297,2.4349,2.4406,2.4439,2.4511,2.4527,2.4548,2.4556,2.4545,2.4542,2.4567,2.4564,2.4573,2.4573,2.4572,2.4572,0,2.3752,2.38,2.3883,2.3959,2.398,2.4027,2.4092,2.4137,2.4175,2.4243,2.4261,2.4321,2.4389,2.4436,2.4523,2.4545,2.4622,2.463,2.46,2.4604,2.4635,2.4631,2.4731,2.4745,2.4685,2.4685,2.4686,0,2.379,2.3837,2.3919,2.3957,2.3995,2.4056,2.4098,2.4143,2.4186,2.4262,2.4298,2.4367,2.4425,2.4532,2.4583,2.465,2.4659,2.4689,2.4669,2.4656,2.4658,2.4654,2.4659,2.4692,2.4692,2.4693,2.4693,0,2.3851,2.3872,2.3932,2.4,2.405,2.4106,2.4162,2.4191,2.4247,2.4293,2.4363,2.4408,2.4497,2.4565,2.4637,2.4676,2.4693,2.4699,2.471,2.4699,2.4679,2.4689,2.4608,2.4696,2.4696,2.4696,2.4695,2.4695,2.3887,2.393,2.3994,2.406,2.4107,2.4159,2.4205,2.4249,2.4308,2.4384,2.4408,2.448,2.4542,2.464,2.468,2.4737,2.4734,2.4751,2.4755,2.4758,2.4757,2.4671,2.475,2.475,2.475,2.475,2.475,0,2.3949,2.3991,2.4052,2.4129,2.4181,2.4194,2.4256,2.4298,2.4362,2.4418,2.4475,2.4555,2.4622,2.4678,2.4747,2.4782,2.4792,2.4798,2.4796,2.4804,2.4756,2.4739,2.4789,2.4789,2.4789,2.4789,2.4789,2.4789,2.3987,2.406,2.4089,2.4186,2.4229,2.43,2.4334,2.4382,2.4427,2.4515,2.4571,2.4608,2.4664,2.4737,2.4799,2.4814,2.4838,2.4842,2.4859,2.4812,2.4808,2.4803,2.4787,2.4847,2.4847,2.4903,2.4903,2.4903]},{"header":{"parameterUnit":"m.s-1","parameterCategory":1,"la1":30.2991,"la2":30.254,"lo1":-89.0895,"lo2":-89.0444,"dy":0.0017,"dx":0.0017,"nx":28,"ny":28,"refTime":"2024-07-11T09:00:00:Z","depth":0,"parameterNumber":3,"parameterNumberName":"V-component_of_WINDS"},"data":[0,0,0,0,0,0,0,0,0,0,0,0,0,0,0,0,0,0,0,0,0,0,0,0,0,0,0,0,0,0,0,0,0,0,0,0,0,0,0,0,0,0,0,0,0,0,0,0,0,0,0,0,0,0,0,0,0,0,4.3986,4.3986,0,4.3992,4.3992,4.3992,4.3946,4.3945,4.3944,4.3943,4.3947,4.3948,4.395,0,0,0,0,0,0,0,0,0,0,0,0,0,4.3935,4.3936,4.3986,4.3986,4.3986,4.3992,4.3992,4.3992,4.3947,4.3945,4.3944,4.3942,4.3947,4.3948,4.395,0,0,0,0,0,0,0,0,0,0,0,0,0,4.395,4.3936,4.3986,4.3964,4.3963,4.3992,4.3992,4.3992,4.3947,4.3945,4.3943,4.3941,4.3946,4.3948,4.395,4.4,0,0,4.3956,4.3957,0,0,0,0,0,0,0,0,4.395,4.3952,4.3968,4.3966,4.3964,4.3966,4.3975,4.3994,4.3947,4.3953,4.3943,4.3941,4.3955,4.3956,4.3961,4.4,4.4,4.3956,4.3957,4.3958,4.3959,0,0,0,0,0,0,0,4.3949,4.3952,4.3988,4.3968,4.3966,4.3954,4.3954,4.3979,4.3964,4.3952,4.3949,4.395,4.3954,4.3959,4.3961,4.4,4.3956,4.3958,4.3959,4.396,4.4079,4.4081,0,0,0,0,0,0,4.3951,4.3951,4.3988,4.3988,4.3952,4.3956,4.3957,4.3968,4.3964,4.3962,4.3952,4.3948,4.3957,4.3959,4.3961,4.4018,4.3958,4.396,4.3961,4.4077,4.4079,4.4081,0,0,0,0,0,0,4.395,4.3954,4.3988,4.3969,4.3972,4.3959,4.3972,4.3969,4.3974,4.3964,4.3961,4.3961,4.3956,4.3958,4.399,4.4018,4.3961,4.3962,4.4074,4.4078,4.408,4.4133,0,0,0,0,0,0,4.3948,4.3954,4.3973,4.397,4.3974,4.4018,4.3974,4.397,4.3978,4.3973,4.3971,4.3969,4.3954,4.3988,4.3992,4.4019,4.3964,4.4072,4.4076,4.4079,4.4129,4.4138,4.4145,0,0,0,0,0,4.3947,4.3988,4.3975,4.3979,4.3997,4.4019,4.4021,4.4004,4.3981,4.3999,4.3992,4.3969,4.4014,4.3991,4.3996,4.4024,4.407,4.4075,4.4079,4.4125,4.4136,4.4145,0,0,0,0,0,0,4.3995,4.3987,4.3972,4.4014,4.4018,4.4012,4.4035,4.4016,4.4026,4.4021,4.3999,4.3999,4.4035,4.4033,4.4007,4.4072,4.4038,4.4044,4.4071,4.4081,4.4089,4.4089,4.3966,0,0,0,0,0,4.401,4.403,4.4022,4.4059,4.4062,4.4048,4.4057,4.4044,4.4046,4.4048,4.4043,4.4046,4.4061,4.4071,4.4084,4.4129,4.4127,4.4151,4.4159,4.4165,4.417,4.4193,4.4203,4.4096,4.4096,4.4096,0,0,4.4042,4.4041,4.4054,4.4068,4.407,4.4089,4.405,4.4072,4.4086,4.4051,4.4081,4.4078,4.408,4.4118,4.4135,4.4118,4.4199,4.4171,4.4177,4.4178,4.4198,4.4208,4.4217,4.4099,4.4099,4.4098,0,0,4.4111,4.4112,4.4142,4.4145,4.4147,4.4138,4.4146,4.4143,4.4139,4.4169,4.4143,4.4159,4.4185,4.4188,4.4192,4.4262,4.424,4.4266,4.4308,4.4331,4.4339,4.4346,4.437,4.4379,4.4271,4.4272,4.4272,0,4.415,4.4179,4.416,4.4185,4.4191,4.4161,4.4191,4.4194,4.4201,4.4206,4.4187,4.4219,4.4219,4.4256,4.4273,4.4279,4.4286,4.4266,4.4339,4.4346,4.4353,4.4375,4.4384,4.4275,4.4274,4.4274,4.4274,0,4.4226,4.4247,4.4271,4.4279,4.4289,4.4316,4.4301,4.4313,4.4299,4.4291,4.4322,4.432,4.4332,4.434,4.4326,4.4376,4.4365,4.4343,4.4309,4.4367,4.4387,4.4396,4.4279,4.4278,4.4277,4.4276,0,0,4.4324,4.4322,4.4331,4.4333,4.4334,4.435,4.4375,4.4387,4.4398,4.4403,4.4424,4.4447,4.4426,4.4432,4.4418,4.4438,4.4491,4.4413,4.4413,4.4427,4.4545,4.4561,4.4571,4.4478,4.4479,4.4481,4.4545,0,4.439,4.4434,4.4418,4.4463,4.4481,4.4452,4.4475,4.4477,4.4471,4.4485,4.4478,4.4495,4.4467,4.447,4.4488,4.4481,4.4515,4.4476,4.4496,4.4497,4.4495,4.4582,4.4599,4.466,4.4553,4.4554,4.4555,0,4.4472,4.4482,4.4528,4.4526,4.4533,4.4553,4.4562,4.4577,4.4579,4.4573,4.4579,4.4561,4.4585,4.4552,4.4585,4.4559,4.4566,4.4564,4.4566,4.4566,4.4529,4.4584,4.4679,4.4688,4.4568,4.4567,4.4566,0,4.4538,4.4562,4.4593,4.4596,4.4594,4.4609,4.4609,4.4609,4.4617,4.4626,4.463,4.4642,4.4647,4.4656,4.4641,4.4618,4.4676,4.4641,4.4671,4.4671,4.4684,4.4683,4.478,4.469,4.469,4.469,4.469,0,4.4612,4.4641,4.4622,4.4641,4.4673,4.4654,4.4686,4.4683,4.4684,4.4701,4.4677,4.4693,4.4673,4.4688,4.4677,4.4705,4.4708,4.4704,4.47,4.4705,4.4706,4.4709,4.4704,4.4692,4.4692,4.4691,4.4691,0,4.469,4.4678,4.471,4.4706,4.4705,4.4729,4.4725,4.4742,4.4734,4.4756,4.476,4.4748,4.4764,4.475,4.4766,4.4758,4.4796,4.4787,4.4795,4.4792,4.4822,4.4819,4.4924,4.4936,4.4839,4.484,4.4841,0,4.4737,4.4759,4.4757,4.4767,4.4769,4.4785,4.4793,4.4776,4.4786,4.479,4.4806,4.482,4.483,4.4857,4.4849,4.4861,4.4851,4.4887,4.4853,4.4857,4.4851,4.4849,4.4851,4.4894,4.4895,4.4896,4.4897,0,4.4823,4.4816,4.4829,4.484,4.4851,4.4858,4.4864,4.4874,4.4856,4.4868,4.4884,4.4892,4.4908,4.4921,4.4931,4.493,4.491,4.4908,4.4915,4.492,4.4924,4.4921,4.4813,4.4905,4.4904,4.4904,4.4903,4.4903,4.4886,4.4904,4.4906,4.4921,4.4923,4.4929,4.4945,4.4939,4.4953,4.4964,4.4953,4.4973,4.4974,4.4984,4.4986,4.5,4.4985,4.4996,4.4999,4.5001,4.5005,4.4922,4.5002,4.5002,4.5002,4.5001,4.5001,0,4.4969,4.4969,4.4983,4.4992,4.5004,4.4985,4.4991,4.5002,4.5019,4.5022,4.5033,4.5051,4.5065,4.5058,4.507,4.5083,4.5074,4.5086,4.5085,4.5085,4.5019,4.5011,4.5093,4.5093,4.5093,4.5093,4.5093,4.5093,4.5014,4.5043,4.5037,4.5067,4.5066,4.5085,4.5089,4.5095,4.5097,4.5119,4.513,4.5126,4.5125,4.5136,4.5148,4.5145,4.515,4.5166,4.516,4.5098,4.5089,4.5081,4.5073,4.5167,4.5167,4.5225,4.5225,4.5226]}]]